GW4117 Weather Reports


Display with metric or nautical units.
time (UTC)temp
F
wind
direction
speed
MPH
gust
MPH
rain 1hr
in
rain 24hr
in
rain mn
in
humidity
%
barometer
mb
20260504044535 58 21 22.0 32.0 0.00 0.00 0.00 39 1007.9
20260504043041 58 46 18.0 23.0 0.00 0.00 0.00 39 1007.5
20260504041530 58 42 17.0 21.0 0.00 0.00 0.00 38 1007.1
20260504040030 58 43 14.0 21.0 0.00 0.00 0.00 39 1006.9
20260504034528 58 38 13.0 17.0 0.00 0.03 0.00 39 1006.6
20260504033029 59 40 14.0 24.0 0.00 0.03 0.00 38 1006.3
20260504031532 60 33 18.0 27.0 0.00 0.03 0.00 38 1005.9
20260504030029 61 52 17.0 23.0 0.00 0.03 0.00 36 1005.5
20260504024533 62 49 13.0 17.0 0.00 0.03 0.00 30 1005.4
20260504023031 63 35 10.0 13.0 0.00 0.03 0.00 27 1005.2
20260504021535 66 32 9.0 14.0 0.00 0.03 0.00 25 1005.3
20260504020040 67 25 11.0 15.0 0.00 0.03 0.00 24 1005.2
20260504014537 69 21 12.0 18.0 0.00 0.03 0.00 23 1005.4
20260504013031 71 342 13.0 17.0 0.00 0.03 0.00 22 1005.4
20260504011532 72 12 11.0 15.0 0.00 0.03 0.00 22 1005.5
20260504010032 73 348 12.0 21.0 0.00 0.03 0.00 22 1005.7
20260504004530 73 344 13.0 21.0 0.00 0.03 0.00 21 1005.7
20260504003029 74 360 16.0 22.0 0.00 0.03 0.00 21 1005.7
20260504001535 74 321 16.0 24.0 0.00 0.03 0.00 21 1005.9
20260504000031 75 329 17.0 23.0 0.00 0.03 0.00 20 1005.9
20260503234531 75 334 10.0 19.0 0.00 0.03 0.00 20 1005.9
20260503233027 75 331 17.0 22.0 0.00 0.03 0.00 20 1005.9
20260503231529 75 320 14.0 20.0 0.00 0.03 0.00 20 1006.0
20260503230030 75 336 14.0 22.0 0.00 0.03 0.00 20 1006.2
20260503224530 74 325 12.0 18.0 0.00 0.03 0.00 20 1006.4
20260503223030 75 341 15.0 22.0 0.00 0.03 0.00 20 1006.7
20260503221532 75 310 11.0 23.0 0.00 0.03 0.00 21 1006.8
20260503220030 74 311 11.0 24.0 0.00 0.03 0.00 20 1006.8
20260503214539 74 321 14.0 22.0 0.00 0.03 0.00 22 1007.1
20260503213032 74 321 17.0 23.0 0.00 0.03 0.00 21 1007.2
20260503211529 73 282 8.0 20.0 0.00 0.03 0.00 21 1007.5
20260503210032 73 331 14.0 22.0 0.00 0.03 0.00 21 1007.9
20260503204533 73 299 9.0 17.0 0.00 0.03 0.00 21 1008.0
20260503203031 72 292 10.0 24.0 0.00 0.03 0.00 21 1008.1
20260503201530 72 300 14.0 22.0 0.00 0.03 0.00 23 1008.4
20260503200046 72 323 10.0 21.0 0.00 0.03 0.00 23 1008.8
20260503194532 72 293 13.0 22.0 0.00 0.03 0.00 24 1008.8
20260503193036 70 300 15.0 26.0 0.00 0.03 0.00 24 1009.1
20260503191528 71 313 14.0 23.0 0.00 0.03 0.00 24 1009.3
20260503190030 71 317 13.0 21.0 0.00 0.03 0.00 23 1009.4
20260503184540 71 311 11.0 22.0 0.00 0.03 0.00 25 1009.6
20260503183030 71 254 12.0 19.0 0.00 0.03 0.00 23 1009.7
20260503181531 70 286 14.0 24.0 0.00 0.03 0.00 24 1009.9
20260503180044 70 283 11.0 19.0 0.00 0.03 0.00 24 1010.0
20260503174543 70 283 11.0 20.0 0.00 0.03 0.00 27 1010.1
20260503173039 69 311 11.0 20.0 0.00 0.03 0.00 28 1010.4
20260503171529 68 301 5.0 14.0 0.00 0.03 0.00 30 1010.4
20260503081539 40 0 0.0 0.0 0.00 0.03 0.00 82 1013.4